Regional Weather Roundup
Issued by NWS Charleston, SC

Current Version | Previous Version | Graphics & Text | Print | Product List | Glossary On
Versions: 1 2 3 4 5 6 7 8 9 10 11 12 13 14 15 16 17 18 19 20 21 22 23 24 25 26 27 28 29 30 31 32 33 34 35 36 37 38 39 40 41 42 43 44 45 46 47 48 49 50
000 ASUS42 KCHS 201710 RWRCHS REGIONAL WEATHER ROUNDUP NATIONAL WEATHER SERVICE CHARLESTON SC 1200 PM EST SAT DEC 20 2014 NOTE: "FAIR" INDICATES FEW OR NO CLOUDS BELOW 12,000 FEET WITH NO SIGNIFICANT WEATHER AND/OR OBSTRUCTIONS TO VISIBILITY. NOT ALL STATIONS ARE QUALITY CONTROLLED BY THE NATIONAL WEATHER SERVICE. USE DATA WITH CAUTION...ESPECIALLY DEWPOINT OBSERVATIONS. SCZ027-030-031-034>040-042>050-201800- ...SOUTHEAST SOUTH CAROLINA... CITY SKY/WX TMP DP RH WIND PRES REMARKS N CHARLESTON CLOUDY 53 51 93 NE9 30.19F WATERFRONT PRK N/A 54 N/A N/A N12 N/A MOUNT PLEASANT PTSUNNY 54 54 100 CALM 30.20F FOG PINOPOLIS NOT AVBL MONCKS CORNER DRIZZLE 52 50 93 CALM 30.21F SUMMERVILLE LGT RAIN 52 52 100 N5 30.21F BEAUFORT MCAS CLOUDY 53 50 89 N8 30.20F BEAUFORT ARPT LGT RAIN 52 52 100 N5 30.19F HILTON HEAD IS N/A 54 52 94 N9 30.19F WALTERBORO DRIZZLE 52 N/A N/A N3 30.21F ALLENDALE CLOUDY 52 50 93 SE5 30.19F FOG ...SOUTHERN MIDLANDS AND PEE DEE... CITY SKY/WX TMP DP RH WIND PRES REMARKS GEORGETOWN NOT AVBL KINGSTREE NOT AVBL ORANGEBURG LGT RAIN 50 47 89 NE5 30.22F BARNWELL CLOUDY 52 50 93 E3 30.21F AIKEN LGT RAIN 48 48 100 NE3 30.24F MANNING NOT AVBL COLUMBIA LGT RAIN 48 43 82 E5 30.22F SUMTER LGT RAIN 46 44 92 NE8 30.22F FLORENCE LGT RAIN 45 40 82 E9 30.25F MYRTLE BEACH LGT RAIN 48 45 87 NE10 30.22F FOG N MYRTLE BEACH LGT RAIN 48 45 89 NE9 30.22F FOG $$ GAZ063-065-086>088-099>101-113>116-118-119-134>141-150-201800- ...SOUTHEAST GEORGIA... CITY SKY/WX TMP DP RH WIND PRES REMARKS SAVANNAH ARPT CLOUDY 54 50 87 N9 30.19F HUNTER AAF CLOUDY 54 52 95 VRB7 30.17S FORT STEWART CLOUDY 54 51 89 N6 30.18F STATESBORO LGT RAIN 50 50 100 CALM 30.20F SYLVANIA DRIZZLE 50 50 100 SE8 30.19F CLAXTON CLOUDY 52 52 100 N6 30.19F ...CSRA...CENTRAL AND FAR SOUTHEAST GEORGIA... CITY SKY/WX TMP DP RH WIND PRES REMARKS THOMSON CLOUDY 53 52 99 CALM 30.25F AUGUSTA-BUSH CLOUDY 52 49 89 CALM 30.21F AUGUSTA-DANIEL CLOUDY 52 50 93 N5 30.21F FOG SWAINSBORO CLOUDY 54 54 100 SE5 30.20F VIDALIA CLOUDY 52 52 100 E6 30.18F FOG EASTMAN LGT RAIN 53 53 100 NE6 30.21S HAZLEHURST CLOUDY 53 52 99 NE3 30.17F ALMA CLOUDY 54 49 83 VRB3 30.17F WAYCROSS CLOUDY 60 53 77 NE6 30.17F JESUP CLOUDY 57 54 88 N5 30.18F BAXLEY DRIZZLE 54 50 87 NE6 30.18F BRUNSWICK CLOUDY 59 54 82 N7 30.16F SAINT SIMONS CLOUDY 60 54 80 N10 30.16F $$ SCZ027-028-034-036>038-045-046-048>050-GAZ119-141-201800- ...LAKE AND SUPPLEMENTAL COASTAL OBSERVATIONS... STATION/POSITION TIME TEMP WIND PRES WAVE SWELL AIR SEA DIR/SP/G HT/PER HT/PER/DIR (UTC) (F) (DEG/KT/KT) (MB) (FT/S) (FT/S/D) UPR LAKE MARION NOT AVBL WINYAH BAY 1600 51 40/ 10 1023.0S LAKE MURRAY 1600 45 30/ 3/ 4 1023.4F ACE BASIN NERRS 1600 51 30/ 3 1022.0S FORT PULASKI 1700 53 56 360/ 8/ 10 1022.3F SAPELO ISLAND 1600 57 360/ 8 1022.0S $$ ANZ835-935-AMZ111-154-330-350-352-354-370-450-454-472-201800- ...C-MAN AND BUOY OBSERVATIONS... STATION/POSITION TIME TEMP WIND PRES WAVE SWELL AIR SEA DIR/SP/G HT/PER HT/PER/DIR (UTC) (F) (DEG/KT/KT) (MB) (FT/S) (FT/S/D) BUOY 41004 1700 61 68 20/ 12/ 16 1021.5S 4/ 6 3/ 6 BUOY 41008 1700 58 58 10/ 12/ 14 1021.0F 2/11 2/ 90/11 FOLLY BEACH CMAN 1600 53 30/ 13/ 16 1023.0F CAPERS NEARSHORE 1600 53 40/ 16/ 19 N/A FRIPP NEARSHORE NOT AVBL STATION/POSITION TIME TEMP WIND PRES WAVE SWELL AIR SEA DIR/SP/G HT/PER HT/PER/DIR (UTC) (F) (DEG/KT/KT) (MB) (FT/S) (FT/S/D) 5E ST. MARYS GA 1700 61 N/A 2/ 4 FRYING PAN BUOY 1700 54 62 40/ 16/ 19 1023.3F 3/ 4 2/100/11 BUOY 41025 1700 48 1024.3F 3/ 7 CAPE LOOKOUT NC 1600 45 20/ 13/ 16 1024.3F BUOY 41002 1605 64 72 120/ 8/ 14 1021.9F 2/ 8 2/ 50/ 8 BUOY 41010 1700 73 77 180/ 4/ 6 1020.2F 3/11 3/100/11 ST AUGUSTINE FL 1700 63 360/ 11/ 13 1020.6F $$

USA.gov is the U.S. government's official web portal to all federal, state and local government web resources and services.